KQ4NAL Weather Reports


Display with metric or nautical units.
time (UTC)temp
F
wind
direction
speed
MPH
gust
MPH
rain 1hr
in
rain 24hr
in
rain mn
in
humidity
%
barometer
mb
20260506035635 59 37 0.0 1.0 0.00 0.32 0.32 99 1007.6
20260506035131 59 216 3.0 3.0 0.00 0.32 0.32 99 1007.7
20260506034629 59 16 0.0 0.0 0.00 0.32 0.32 99 1008.0
20260506034125 59 1 0.0 0.0 0.00 0.32 0.32 99 1007.8
20260506033623 59 355 0.0 0.0 0.00 0.32 0.32 99 1007.9
20260506033120 59 354 0.0 0.0 0.00 0.32 0.32 99 1008.0
20260506032617 59 5 0.0 0.0 0.00 0.32 0.32 99 1007.8
20260506032114 59 1 0.0 0.0 0.00 0.32 0.32 99 1008.1
20260506031611 59 359 0.0 0.0 0.00 0.32 0.32 99 1008.2
20260506031108 59 358 0.0 0.0 0.07 0.32 0.32 99 1008.2
20260506030606 59 2 0.0 0.0 0.07 0.32 0.32 99 1008.1
20260506030103 59 8 0.0 0.0 0.00 0.31 0.31 99 1008.2
20260506025600 59 8 0.0 0.0 0.00 0.31 0.31 99 1007.9
20260506025056 59 5 0.0 0.0 0.12 0.31 0.31 99 1008.0
20260506024554 59 1 0.0 0.0 0.28 0.31 0.31 99 1008.1
20260506024050 59 12 0.0 0.0 0.28 0.29 0.29 99 1008.5
20260506023545 59 4 0.0 0.0 0.31 0.26 0.26 99 1008.7
20260506023043 59 345 0.0 0.0 0.17 0.23 0.23 99 1008.6
20260506022541 59 353 0.0 0.0 0.05 0.21 0.21 99 1008.7
20260506022038 59 348 0.0 0.0 0.07 0.20 0.20 99 1008.5
20260506021535 59 357 0.0 0.0 0.14 0.20 0.20 99 1008.6
20260506021033 59 4 0.0 0.0 0.07 0.19 0.19 99 1008.7
20260506020530 59 359 0.0 0.0 0.07 0.19 0.19 99 1008.7
20260506020027 59 349 1.0 1.0 0.00 0.18 0.18 99 1008.7
20260506015525 59 356 0.0 0.0 0.00 0.18 0.18 99 1008.6
20260506015021 59 357 0.0 0.0 0.00 0.18 0.18 99 1008.5
20260506014519 59 356 0.0 0.0 0.00 0.18 0.18 99 1008.2
20260506014015 59 3 0.0 0.0 0.00 0.18 0.18 99 1008.7
20260506013513 59 9 0.0 0.0 0.05 0.18 0.18 99 1008.6
20260506013009 59 3 0.0 0.0 0.05 0.18 0.18 99 1008.7
20260506012505 59 351 3.0 3.0 0.07 0.17 0.17 99 1009.1
20260506012003 59 318 1.0 2.0 0.07 0.17 0.17 99 1008.6
20260506011500 59 354 0.0 0.0 0.00 0.16 0.16 99 1008.5
20260506010956 59 349 0.0 0.0 0.00 0.16 0.16 99 1007.9
20260506010456 59 314 2.0 2.0 0.00 0.16 0.16 99 1007.8
20260506005951 59 162 3.0 3.0 0.00 0.16 0.16 99 1007.7
20260506005449 59 50 2.0 2.0 0.00 0.16 0.16 99 1007.7
20260506004944 59 167 3.0 3.0 0.00 0.16 0.16 99 1007.8
20260506004442 59 38 2.0 2.0 0.00 0.16 0.16 99 1007.9
20260506003938 59 111 3.0 3.0 0.00 0.16 0.16 99 1007.9
20260506003435 59 199 3.0 3.0 0.00 0.16 0.16 99 1007.8
20260506002931 59 147 3.0 3.0 0.00 0.16 0.16 99 1007.9
20260506002427 60 178 4.0 5.0 0.00 0.16 0.16 99 1007.8
20260506001923 60 211 3.0 3.0 0.00 0.16 0.16 99 1008.4
20260506001420 60 335 0.0 0.0 0.05 0.16 0.16 99 1008.0
20260506000917 60 23 1.0 2.0 0.05 0.16 0.16 99 1008.2
20260506000416 60 207 2.0 2.0 0.07 0.15 0.15 99 1008.0
20260505235911 60 45 2.0 2.0 0.07 0.15 0.15 99 1007.7
20260505235410 60 213 2.0 2.0 0.00 0.14 0.14 99 1007.9
20260505234906 60 332 2.0 2.0 0.00 0.14 0.14 99 1008.0
20260505234404 60 296 1.0 2.0 0.00 0.14 0.14 99 1007.9
20260505233900 60 230 3.0 5.0 0.00 0.14 0.14 99 1007.8
20260505233358 60 178 4.0 5.0 0.05 0.14 0.14 99 1008.0
20260505232855 60 167 3.0 3.0 0.05 0.14 0.14 99 1008.0
20260505232353 60 118 3.0 3.0 0.00 0.13 0.13 99 1007.9
20260505231849 60 36 1.0 1.0 0.00 0.13 0.13 99 1008.1
20260505231347 60 133 3.0 3.0 0.07 0.13 0.13 99 1008.4
20260505230845 60 137 3.0 3.0 0.07 0.13 0.13 99 1008.6
20260505230342 60 22 2.0 3.0 0.00 0.12 0.12 98 1008.2
20260505225839 60 185 3.0 3.0 0.00 0.12 0.12 98 1008.4
20260505225336 60 173 3.0 6.0 0.00 0.12 0.12 98 1008.2
20260505224831 60 108 3.0 3.0 0.00 0.12 0.12 98 1008.6
20260505224329 60 148 4.0 5.0 0.00 0.12 0.12 98 1008.9
20260505223826 61 201 4.0 6.0 0.00 0.12 0.12 98 1008.6
20260505223323 61 191 3.0 3.0 0.00 0.12 0.12 98 1009.0
20260505222819 61 138 3.0 5.0 0.00 0.12 0.12 98 1009.0
20260505222315 61 135 4.0 6.0 0.00 0.12 0.12 98 1008.9
20260505221813 61 151 4.0 6.0 0.00 0.12 0.12 98 1009.0
20260505221309 61 105 3.0 3.0 0.00 0.12 0.12 98 1009.2
20260505220806 61 185 6.0 7.0 0.00 0.12 0.12 98 1009.2
20260505220303 61 145 3.0 3.0 0.00 0.12 0.12 98 1009.5
20260505215801 61 173 4.0 5.0 0.05 0.12 0.12 98 1009.4
20260505215259 61 187 6.0 7.0 0.05 0.12 0.12 98 1009.3
20260505214756 61 333 3.0 6.0 0.00 0.11 0.11 98 1009.4
20260505214253 61 144 5.0 6.0 0.07 0.11 0.11 98 1009.7
20260505213750 61 205 4.0 6.0 0.07 0.11 0.11 98 1009.7
20260505213248 61 202 5.0 6.0 0.00 0.10 0.10 98 1009.6
20260505212743 61 215 4.0 5.0 0.05 0.10 0.10 98 1009.6
20260505212241 61 216 3.0 5.0 0.05 0.10 0.10 98 1009.6
20260505211738 61 148 6.0 7.0 0.07 0.09 0.09 97 1009.7
20260505211235 61 69 4.0 5.0 0.07 0.09 0.09 97 1009.8
20260505210731 61 322 1.0 2.0 0.07 0.09 0.09 97 1009.8
20260505210228 61 243 2.0 2.0 0.05 0.08 0.08 97 1009.6
20260505205726 61 348 1.0 1.0 0.12 0.08 0.08 97 1009.7
20260505205224 61 275 4.0 5.0 0.14 0.07 0.07 96 1009.8
20260505204720 62 172 3.0 5.0 0.07 0.06 0.06 96 1009.8
20260505204218 62 342 1.0 1.0 0.05 0.05 0.05 95 1010.0
20260505203715 62 316 1.0 1.0 0.17 0.05 0.05 95 1009.9
20260505203212 62 319 2.0 2.0 0.19 0.04 0.04 94 1009.8
20260505202708 62 288 1.0 1.0 0.12 0.02 0.02 93 1009.9
20260505202204 62 322 2.0 2.0 0.05 0.01 0.01 92 1009.6
20260505201700 62 349 2.0 2.0 0.05 0.01 0.01 91 1009.6
20260505201159 63 295 2.0 2.0 0.00 0.00 0.00 89 1009.8
20260505200656 64 337 2.0 2.0 0.00 0.00 0.00 87 1009.6
20260505200153 65 334 3.0 5.0 0.00 0.00 0.00 84 1009.7
20260505195649 68 209 7.0 9.0 0.00 0.00 0.00 76 1009.8
20260505195146 69 276 5.0 6.0 0.00 0.00 0.00 69 1009.4
20260505194643 69 277 4.0 8.0 0.00 0.00 0.00 69 1009.1
20260505194139 69 210 6.0 7.0 0.00 0.00 0.00 68 1009.1
20260505193636 70 206 5.0 7.0 0.00 0.00 0.00 68 1009.1
20260505193133 70 210 6.0 7.0 0.00 0.00 0.00 68 1009.4
20260505192632 70 177 9.0 10.0 0.00 0.00 0.00 67 1009.5
20260505192129 70 206 7.0 8.0 0.00 0.00 0.00 68 1009.5
20260505191627 70 144 2.0 3.0 0.00 0.00 0.00 68 1009.7
20260505191125 70 195 8.0 9.0 0.00 0.00 0.00 67 1009.4
20260505190621 70 204 7.0 9.0 0.00 0.00 0.00 68 1009.7
20260505190115 70 223 7.0 8.0 0.00 0.00 0.00 67 1009.5
20260505185613 70 179 6.0 8.0 0.00 0.00 0.00 69 1009.5
20260505185109 69 199 5.0 7.0 0.00 0.00 0.00 68 1009.7
20260505184605 69 240 9.0 11.0 0.00 0.00 0.00 69 1009.8
20260505184102 69 216 10.0 14.0 0.00 0.00 0.00 68 1009.8
20260505183559 69 173 5.0 7.0 0.00 0.00 0.00 69 1009.8
20260505183057 69 224 9.0 10.0 0.00 0.00 0.00 68 1010.1
20260505182553 69 238 11.0 13.0 0.00 0.00 0.00 68 1010.2
20260505182050 69 229 7.0 10.0 0.00 0.00 0.00 68 1010.1
20260505181546 69 12 5.0 7.0 0.00 0.00 0.00 68 1010.2
20260505181044 69 172 9.0 14.0 0.00 0.00 0.00 67 1010.6
20260505180539 69 224 9.0 11.0 0.00 0.00 0.00 67 1010.4
20260505180038 69 192 11.0 13.0 0.00 0.00 0.00 68 1010.5
20260505175537 69 226 11.0 13.0 0.00 0.00 0.00 68 1010.4
20260505175035 69 232 6.0 8.0 0.00 0.00 0.00 67 1010.4
20260505174532 69 181 9.0 11.0 0.00 0.00 0.00 67 1010.4
20260505174027 69 199 7.0 9.0 0.00 0.00 0.00 67 1010.6
20260505173525 69 208 9.0 10.0 0.00 0.00 0.00 67 1010.3
20260505173021 69 142 5.0 6.0 0.00 0.00 0.00 67 1010.3
20260505172519 69 212 9.0 11.0 0.00 0.00 0.00 66 1010.6
20260505172015 69 215 7.0 9.0 0.00 0.00 0.00 68 1010.6
20260505171510 69 217 8.0 10.0 0.00 0.00 0.00 67 1010.5
20260505171008 69 296 7.0 10.0 0.00 0.00 0.00 66 1010.4
20260505170504 69 200 5.0 5.0 0.00 0.00 0.00 67 1010.4
20260505170000 69 248 3.0 5.0 0.00 0.00 0.00 68 1010.5
20260505165456 69 172 4.0 5.0 0.00 0.00 0.00 66 1010.8
20260505164951 69 161 4.0 6.0 0.00 0.00 0.00 67 1010.6
20260505164448 69 232 5.0 7.0 0.00 0.00 0.00 67 1010.8
20260505163946 68 219 7.0 8.0 0.00 0.00 0.00 67 1010.8
20260505163444 68 226 8.0 9.0 0.00 0.00 0.00 66 1010.6
20260505162944 68 196 5.0 7.0 0.00 0.00 0.00 66 1010.8
20260505162439 68 186 6.0 14.0 0.00 0.00 0.00 67 1010.6
20260505161936 68 274 3.0 5.0 0.00 0.00 0.00 67 1010.8
20260505161432 68 235 3.0 3.0 0.00 0.00 0.00 67 1010.8
20260505160930 68 199 8.0 9.0 0.00 0.00 0.00 66 1010.6
20260505160428 68 242 2.0 5.0 0.00 0.00 0.00 67 1010.6
20260505152905 67 187 7.0 9.0 0.00 0.00 0.00 67 1010.6
20260505152402 67 217 4.0 6.0 0.00 0.00 0.00 68 1010.5
20260505151901 67 192 5.0 7.0 0.00 0.00 0.00 68 1010.5
20260505151358 66 200 7.0 9.0 0.00 0.00 0.00 68 1010.5
20260505150855 67 202 7.0 9.0 0.00 0.00 0.00 69 1010.3
20260505150353 66 226 3.0 3.0 0.00 0.00 0.00 70 1010.6
20260505140323 65 156 5.0 6.0 0.00 0.00 0.00 74 1009.8
20260505130246 62 181 3.0 3.0 0.00 0.00 0.00 81 1010.6
20260505124736 62 20 2.0 2.0 0.00 0.00 0.00 82 1010.5
20260505124233 62 232 1.0 2.0 0.00 0.00 0.00 83 1010.6
20260505123729 62 250 5.0 6.0 0.00 0.00 0.00 83 1010.4
20260505123226 61 219 3.0 3.0 0.00 0.00 0.00 85 1010.5
20260505122722 61 339 0.0 1.0 0.00 0.00 0.00 86 1010.3
20260505122220 60 198 4.0 5.0 0.00 0.00 0.00 87 1010.1
20260505121716 60 202 4.0 5.0 0.00 0.00 0.00 87 1010.3
20260505121213 60 211 5.0 6.0 0.00 0.00 0.00 87 1010.3
20260505120709 60 238 4.0 5.0 0.00 0.00 0.00 87 1010.7
20260505120205 60 214 3.0 3.0 0.00 0.00 0.00 87 1010.7
20260505115659 60 273 1.0 2.0 0.00 0.00 0.00 87 1010.7
20260505115157 60 143 4.0 5.0 0.00 0.00 0.00 88 1010.7
20260505114654 59 203 4.0 5.0 0.00 0.00 0.00 88 1010.6
20260505114150 59 94 3.0 3.0 0.00 0.00 0.00 88 1010.8
20260505113647 59 193 4.0 5.0 0.00 0.00 0.00 88 1010.6
20260505113143 59 230 3.0 3.0 0.00 0.00 0.00 88 1010.8
20260505112640 59 185 4.0 5.0 0.00 0.00 0.00 89 1010.5
20260505112138 59 226 3.0 3.0 0.00 0.00 0.00 89 1010.5
20260505111637 59 256 2.0 2.0 0.00 0.00 0.00 88 1010.7
20260505111133 59 242 3.0 3.0 0.00 0.00 0.00 88 1010.4
20260505110629 59 97 2.0 2.0 0.00 0.00 0.00 88 1010.4
20260505110127 59 349 0.0 0.0 0.00 0.00 0.00 87 1010.5
20260505102102 62 288 1.0 2.0 0.00 0.00 0.00 74 1010.8
20260505101601 63 327 3.0 3.0 0.00 0.00 0.00 72 1010.8
20260505101057 63 243 6.0 7.0 0.00 0.00 0.00 70 1010.4
20260505100554 64 281 3.0 5.0 0.00 0.00 0.00 68 1010.5
20260505100050 64 52 5.0 6.0 0.00 0.00 0.00 67 1010.3
20260505095547 64 276 2.0 3.0 0.00 0.00 0.00 66 1010.0
20260505095043 64 268 6.0 9.0 0.00 0.00 0.00 66 1010.1
20260505094540 64 338 1.0 1.0 0.00 0.00 0.00 66 1010.1
20260505094036 64 39 3.0 5.0 0.00 0.00 0.00 67 1009.9
20260505093533 64 342 0.0 0.0 0.00 0.00 0.00 66 1009.8
20260505093030 64 215 5.0 7.0 0.00 0.00 0.00 66 1009.6
20260505092527 64 6 0.0 1.0 0.00 0.00 0.00 66 1009.5
20260505092026 64 359 1.0 1.0 0.00 0.00 0.00 66 1009.5
20260505091522 64 336 0.0 1.0 0.00 0.00 0.00 66 1009.8
20260505091020 64 338 2.0 2.0 0.00 0.00 0.00 66 1009.4
20260505090518 64 356 0.0 1.0 0.00 0.00 0.00 67 1009.2
20260505090016 63 57 3.0 3.0 0.00 0.00 0.00 66 1009.3
20260505085514 64 173 3.0 3.0 0.00 0.00 0.00 66 1009.2
20260505085011 64 197 3.0 5.0 0.00 0.00 0.00 66 1009.1
20260505084509 64 0 0.0 1.0 0.00 0.00 0.00 66 1009.0
20260505084007 64 191 3.0 5.0 0.00 0.00 0.00 66 1009.1
20260505083504 64 18 1.0 1.0 0.00 0.00 0.00 65 1008.9
20260505083000 64 43 2.0 2.0 0.00 0.00 0.00 65 1008.8
20260505082456 64 29 1.0 1.0 0.00 0.00 0.00 66 1008.8
20260505081953 64 189 5.0 6.0 0.00 0.00 0.00 65 1008.7
20260505081450 64 186 4.0 5.0 0.00 0.00 0.00 65 1008.4
20260505080946 64 54 2.0 2.0 0.00 0.00 0.00 65 1008.4
20260505080442 64 331 3.0 5.0 0.00 0.00 0.00 65 1008.6
20260505075938 64 13 1.0 1.0 0.00 0.00 0.00 66 1008.5
20260505075435 64 352 1.0 2.0 0.00 0.00 0.00 65 1008.4
20260505074933 64 234 3.0 3.0 0.00 0.00 0.00 65 1008.4
20260505074430 64 162 3.0 3.0 0.00 0.00 0.00 64 1008.2
20260505073927 64 260 6.0 8.0 0.00 0.00 0.00 65 1008.4
20260505073425 64 17 1.0 2.0 0.00 0.00 0.00 64 1008.0
20260505072921 64 137 5.0 7.0 0.00 0.00 0.00 65 1008.0
20260505072417 65 202 4.0 5.0 0.00 0.00 0.00 64 1007.9
20260505071914 64 155 8.0 10.0 0.00 0.00 0.00 64 1008.1
20260505071410 65 262 5.0 7.0 0.00 0.00 0.00 64 1008.2
20260505070908 65 248 2.0 3.0 0.00 0.00 0.00 64 1008.0
20260505070404 65 178 9.0 11.0 0.00 0.00 0.00 64 1008.1
20260505065900 65 190 4.0 5.0 0.00 0.00 0.00 64 1008.2
20260505065357 65 153 5.0 7.0 0.00 0.00 0.00 64 1008.1
20260505064854 65 194 4.0 5.0 0.00 0.00 0.00 64 1008.2
20260505064351 65 194 8.0 9.0 0.00 0.00 0.00 64 1008.4
20260505063850 64 222 3.0 5.0 0.00 0.00 0.00 64 1008.2
20260505063345 64 258 5.0 7.0 0.00 0.00 0.00 65 1008.2
20260505062842 64 193 3.0 5.0 0.00 0.00 0.00 66 1008.4
20260505062339 65 204 5.0 8.0 0.00 0.00 0.00 66 1008.1
20260505061836 64 239 6.0 7.0 0.00 0.00 0.00 66 1008.1
20260505061334 64 234 5.0 6.0 0.00 0.00 0.00 66 1008.2
20260505060831 64 252 3.0 6.0 0.00 0.00 0.00 67 1008.2
20260505060328 64 214 4.0 5.0 0.00 0.00 0.00 66 1008.0
20260505055824 64 235 5.0 7.0 0.00 0.00 0.00 67 1007.8
20260505055320 64 201 4.0 6.0 0.00 0.00 0.00 66 1007.9
20260505054817 64 212 3.0 3.0 0.00 0.00 0.00 68 1007.9
20260505054315 64 245 2.0 3.0 0.00 0.00 0.00 67 1007.9
20260505053813 64 172 5.0 7.0 0.00 0.00 0.00 67 1007.8
20260505053309 64 142 5.0 7.0 0.00 0.00 0.00 67 1007.9
20260505052806 65 341 0.0 1.0 0.00 0.00 0.00 66 1007.8
20260505052304 65 194 3.0 3.0 0.00 0.00 0.00 67 1008.0
20260505051800 65 257 5.0 6.0 0.00 0.00 0.00 67 1007.9
20260505051258 65 226 3.0 5.0 0.00 0.00 0.00 67 1007.9
20260505050755 65 150 3.0 3.0 0.00 0.00 0.00 67 1008.1
20260505050254 64 204 5.0 6.0 0.00 0.00 0.00 68 1008.2
20260505041723 66 96 2.0 2.0 0.00 0.00 0.00 66 1008.5
20260505041220 66 211 4.0 6.0 0.00 0.00 0.00 67 1008.4
20260505040718 66 190 4.0 5.0 0.00 0.00 0.00 67 1008.2
20260505040215 66 249 3.0 3.0 0.00 0.00 0.00 67 1008.4